Weather History for West Palm Beach, FL

Change the Weather History Date:

Thursday, January 24, 2013

  Actual Average Record
Temperature  
Mean Temperature 66 °F 66 °F  
Max Temperature 75 °F 75 °F 85 °F (1965)
Min Temperature 57 °F 57 °F 33 °F (2003)
Degree Days  
Heating Degree Days 0 3  
Month to date heating degree days 3 72  
Since 1 July heating degree days 46 143  
Cooling Degree Days 1 3  
Month to date cooling degree days 182 79  
Year to date cooling degree days 182 79  
Growing Degree Days 16 (Base 50)    
Moisture  
Dew Point 49 °F    
Average Humidity 57    
Maximum Humidity 80    
Minimum Humidity 33    
Precipitation  
Precipitation 0.00 in 0.09 in 2.76 in (1893)
Month to date precipitation 0.76 2.48  
Year to date precipitation 0.76 2.48  
Snow  
Snow 0.00 in - - ()
Month to date snowfall 0.0  
Since 1 July snowfall 0.0  
Snow Depth 0.00 in    
Sea Level Pressure  
Sea Level Pressure 30.25 in    
Wind  
Wind Speed 7 mph (NNW)    
Max Wind Speed 16 mph    
Max Gust Speed 21 mph    
Visibility 10 miles    
Events      
T = Trace of Precipitation, MM = Missing Value Source: NWS Daily Summary

Daily Weather History Graph

Daily Weather History Graph

Search for Another Location

Airport:

Trip Planner

Search our weather history database for the weather conditions in past years. The results will help you decide how hot, cold, wet, or windy it might be!

Date:

Astronomy

Jan. 24, 2013 Rise Set
Actual Time 7:08 AM EST 5:56 PM EST
Civil Twilight 6:44 AM EST 6:21 PM EST
Nautical Twilight 6:15 AM EST 6:49 PM EST
Astronomical Twilight 5:48 AM EST 7:17 PM EST
Moon 4:00 PM EST (1/24) 5:01 AM EST (1/24)
Length of Visible Light 11h 37m
Length of Day
10h 48m
Waxing Gibbous, 94% of the Moon is Illuminated
Jan 24
Waxing Gibbous
Jan 26
Full
Feb 3
Last Quarter
Feb 10
New
Feb 17
First Quarter

Hourly Weather History & Observations

Time (EST) Temp. Dew Point Humidity Pressure Visibility Wind Dir Wind Speed Gust Speed Precip Events Conditions
12:53 AM 59.0 °F 53.1 °F 81% 30.25 in 10.0 mi NNW 6.9 mph - N/A   Partly Cloudy
1:53 AM 60.1 °F 54.0 °F 80% 30.25 in 10.0 mi NW 6.9 mph - N/A   Mostly Cloudy
2:53 AM 62.1 °F 53.1 °F 72% 30.24 in 10.0 mi NNW 8.1 mph - N/A   Mostly Cloudy
3:53 AM 62.1 °F 53.1 °F 72% 30.23 in 10.0 mi NNW 5.8 mph - N/A   Mostly Cloudy
4:53 AM 60.1 °F 53.1 °F 78% 30.22 in 10.0 mi NNW 6.9 mph - N/A   Mostly Cloudy
5:53 AM 60.1 °F 51.1 °F 72% 30.24 in 10.0 mi NNW 8.1 mph - N/A   Scattered Clouds
6:53 AM 60.1 °F 48.0 °F 64% 30.26 in 10.0 mi NNW 9.2 mph - N/A   Mostly Cloudy
7:53 AM 61.0 °F 41.0 °F 48% 30.27 in 10.0 mi NNW 4.6 mph - N/A   Scattered Clouds
8:53 AM 64.9 °F 39.0 °F 39% 30.29 in 10.0 mi NNW 8.1 mph - N/A   Partly Cloudy
9:53 AM 70.0 °F 39.9 °F 33% 30.29 in 10.0 mi North 6.9 mph - N/A   Partly Cloudy
10:53 AM 72.0 °F 44.1 °F 37% 30.30 in 10.0 mi NNW 8.1 mph - N/A   Partly Cloudy
11:53 AM 73.0 °F 48.9 °F 42% 30.28 in 10.0 mi Variable 5.8 mph - N/A   Partly Cloudy
12:53 PM 73.9 °F 50.0 °F 43% 30.25 in 10.0 mi Variable 6.9 mph - N/A   Scattered Clouds
1:53 PM 73.9 °F 48.0 °F 40% 30.22 in 10.0 mi North 6.9 mph - N/A   Partly Cloudy
2:53 PM 73.9 °F 48.9 °F 41% 30.20 in 10.0 mi NE 12.7 mph - N/A   Partly Cloudy
3:53 PM 73.9 °F 48.9 °F 41% 30.21 in 10.0 mi NNE 13.8 mph - N/A   Partly Cloudy
4:53 PM 72.0 °F 46.0 °F 40% 30.22 in 10.0 mi NNE 12.7 mph - N/A   Partly Cloudy
5:53 PM 69.1 °F 50.0 °F 51% 30.24 in 10.0 mi NNE 11.5 mph - N/A   Partly Cloudy
6:53 PM 68.0 °F 51.1 °F 55% 30.24 in 10.0 mi NNE 5.8 mph - N/A   Partly Cloudy
7:53 PM 64.9 °F 51.1 °F 61% 30.25 in 10.0 mi North 3.5 mph - N/A   Partly Cloudy
8:53 PM 62.1 °F 52.0 °F 70% 30.27 in 10.0 mi NNW 4.6 mph - N/A   Partly Cloudy
9:53 PM 62.1 °F 52.0 °F 70% 30.27 in 10.0 mi North 4.6 mph - N/A   Partly Cloudy
10:53 PM 59.0 °F 51.1 °F 75% 30.27 in 10.0 mi NW 4.6 mph - N/A   Partly Cloudy
11:53 PM 59.0 °F 51.1 °F 75% 30.26 in 10.0 mi NNW 5.8 mph - N/A   Partly Cloudy